This demonstration page uses our WeatherBlox Daily Observations layout. Learn more.

Left ArrowRight Arrow

40.92501, -98.34201

Hourly Observations for September 22, 2022

Temp ( °F °C ) Dew Point ( °F °C ) Humidity (%) Winds ( mph kmh ) Pressure ( in mb ) Visibility ( mi km ) Precip ( " mm )
12:53 am 00:53 Clear 55 12.8 47 8.3 74 74 N 7 11 30.27 1025 10 16 0.00 0.00
1:53 am 01:53 Clear 54 12.2 46 7.8 74 74 N 8 13 30.28 1025 10 16 0.00 0.00
2:53 am 02:53 Clear 54 12.2 43 6.1 66 66 NNE 8 13 30.27 1025 10 16 0.00 0.00
3:53 am 03:53 Clear 53 11.7 43 6.1 68 68 NNE 5 7 30.29 1026 10 16 0.00 0.00
4:53 am 04:53 Clear 53 11.7 42 5.6 66 66 NE 5 7 30.30 1026 10 16 0.00 0.00
5:53 am 05:53 Clear 52 11.1 44 6.7 74 74 N 5 7 30.32 1027 10 16 0.00 0.00
6:53 am 06:53 Clear 51 10.6 44 6.7 77 77 N 6 9 30.34 1027 10 16 0.00 0.00
7:53 am 07:53 Sunny 52 11.1 43 6.1 71 71 Calm 30.35 1028 10 16 0.00 0.00
8:53 am 08:53 Sunny 53 11.7 44 6.7 71 71 Calm 30.36 1028 10 16 0.00 0.00
9:53 am 09:53 Sunny 54 12.2 43 6.1 66 66 ENE 5 7 30.36 1028 10 16 0.00 0.00
10:53 am 10:53 Mostly Sunny 55 12.8 41 5 59 59 E 6 9 30.37 1028 10 16 0.00 0.00
11:53 am 11:53 Cloudy 56 13.3 41 5 57 57 ESE 9 15 30.35 1028 10 16 0.00 0.00
12:53 pm 12:53 Cloudy 57 13.9 41 5 55 55 ESE 9 15 30.33 1027 10 16 0.01 0.13
1:53 pm 13:53 Cloudy 57 13.9 42 5.6 57 57 SE 8 13 30.31 1027 10 16 0.00 0.00
2:53 pm 14:53 Cloudy 56 13.3 45 7.2 66 66 ESE 5 7 30.29 1026 10 16 0.01 0.25
3:53 pm 15:53 Cloudy 57 13.9 44 6.7 62 62 ESE 7 11 30.27 1025 10 16 0.00 0.00
4:53 pm 16:53 Cloudy 57 13.9 42 5.6 57 57 ESE 10 17 30.24 1024 10 16 0.00 0.00
5:53 pm 17:53 Cloudy 57 13.9 43 6.1 59 59 ESE 6 9 30.22 1024 10 16 0.00 0.00
6:53 pm 18:53 Cloudy 56 13.3 45 7.2 66 66 SE 6 9 30.21 1023 10 16 0.00 0.00
7:53 pm 19:53 Cloudy 55 12.8 46 7.8 72 72 SSE 6 9 30.20 1023 10 16 0.00 0.00
8:53 pm 20:53 Cloudy 55 12.8 45 7.2 69 69 SE 7 11 30.19 1022 10 16 0.00 0.00
9:53 pm 21:53 Cloudy 54 12.2 46 7.8 74 74 SSE 12 19 30.16 1021 10 16 0.01 0.13
10:53 pm 22:53 Cloudy 54 12.2 45 7.2 71 71 SSE 9 15 30.16 1021 10 16 0.00 0.00
11:53 pm 23:53 Cloudy 54 12.2 47 8.3 77 77 S 5 7 30.18 1022 10 16 0.00 0.00

Powered by AerisWeather